EA5ILC Weather Reports


Display with metric or nautical units.
time (UTC)temp
F
wind
direction
speed
MPH
gust
MPH
rain 1hr
in
rain 24hr
in
rain mn
in
humidity
%
barometer
mb
20260505140542 75 223 2.0 8.0 0.00 0.00 0.00 62 1013.3
20260505124601 70 26 3.0 9.0 0.00 0.00 0.00 71 1013.8
20260505123619 71 162 3.0 9.0 0.00 0.00 0.00 71 1014.0
20260505122556 72 137 4.0 9.0 0.00 0.00 0.00 70 1013.8
20260505121554 72 204 4.0 9.0 0.00 0.00 0.00 69 1014.1
20260505120551 71 213 3.0 8.0 0.00 0.00 0.00 70 1014.2
20260505115548 71 193 3.0 11.0 0.00 0.00 0.00 71 1014.1
20260505114546 71 186 4.0 8.0 0.00 0.00 0.00 70 1014.2
20260505113543 70 78 4.0 9.0 0.00 0.00 0.00 71 1014.3
20260505112540 71 173 5.0 11.0 0.00 0.00 0.00 71 1014.1
20260505111558 72 182 3.0 8.0 0.00 0.00 0.00 71 1014.2
20260505110535 72 187 3.0 7.0 0.00 0.00 0.00 71 1014.3
20260505101522 71 187 3.0 7.0 0.00 0.00 0.00 73 1014.4
20260505100519 71 187 2.0 4.0 0.00 0.00 0.00 73 1014.6
20260505095517 69 185 1.0 4.0 0.00 0.00 0.00 75 1014.5
20260505094634 68 227 3.0 6.0 0.00 0.00 0.00 78 1014.5
20260505093632 68 207 3.0 9.0 0.00 0.00 0.00 77 1014.6
20260505092609 67 176 2.0 4.0 0.00 0.00 0.00 79 1014.6
20260505091627 68 172 3.0 6.0 0.00 0.00 0.00 78 1014.4
20260505090604 69 210 2.0 6.0 0.00 0.00 0.00 74 1014.4
20260505085642 68 212 1.0 4.0 0.00 0.00 0.00 76 1014.3
20260505084559 69 176 2.0 4.0 0.00 0.00 0.00 76 1014.3
20260505083556 68 170 1.0 4.0 0.00 0.00 0.00 74 1014.3
20260505082553 67 158 0.0 2.0 0.00 0.00 0.00 76 1014.6
20260505081551 67 214 0.0 4.0 0.00 0.00 0.00 79 1014.4
20260505080548 65 180 0.0 2.0 0.00 0.00 0.00 82 1014.5
20260505075546 63 0.0 2.0 0.00 0.00 0.00 86 1014.5
20260505074543 62 180 0.0 2.0 0.00 0.00 0.00 89 1014.4
20260505073540 62 195 1.0 4.0 0.00 0.00 0.00 90 1014.5
20260505072538 62 183 1.0 4.0 0.00 0.00 0.00 90 1014.5
20260505071535 62 209 1.0 4.0 0.00 0.00 0.00 90 1014.4
20260505070532 62 145 1.0 4.0 0.00 0.00 0.00 91 1014.4
20260505065530 61 120 1.0 4.0 0.00 0.00 0.00 92 1014.3
20260505064527 61 111 1.0 2.0 0.00 0.00 0.00 93 1014.3
20260505063545 60 180 0.0 2.0 0.00 0.00 0.00 93 1014.2
20260505062522 58 0.0 0.0 0.00 0.00 0.00 92 1013.9
20260505061519 57 0.0 0.0 0.00 0.00 0.00 92 1013.8
20260505060557 57 0.0 2.0 0.00 0.00 0.00 93 1013.8
20260505055614 57 0.0 0.0 0.00 0.00 0.00 93 1013.8
20260505054612 57 0.0 0.0 0.00 0.00 0.00 93 1013.9
20260505053609 57 0.0 0.0 0.00 0.00 0.00 93 1013.8
20260505052607 57 0.0 0.0 0.00 0.00 0.00 93 1013.7
20260505051604 57 0.0 0.0 0.00 0.00 0.00 93 1013.6
20260505050621 57 0.0 0.0 0.00 0.00 0.00 93 1013.5
20260505041548 60 120 2.0 4.0 0.00 0.00 0.00 91 1013.7
20260505040546 60 137 1.0 4.0 0.00 0.00 0.00 89 1013.5
20260505035623 60 144 1.0 2.0 0.00 0.00 0.00 88 1013.5
20260505034540 60 135 0.0 2.0 0.00 0.00 0.00 84 1013.4
20260505033538 60 148 0.0 2.0 0.00 0.00 0.00 73 1013.6
20260505032535 61 0.0 0.0 0.00 0.00 0.00 61 1013.7
20260505031533 61 101 0.0 2.0 0.00 0.00 0.00 61 1013.6
20260505030530 59 0 0.0 2.0 0.00 0.00 0.00 66 1013.6
20260505025527 60 68 0.0 2.0 0.00 0.00 0.00 67 1013.5
20260505024524 58 0.0 0.0 0.00 0.06 0.00 75 1013.6
20260505023522 57 11 0.0 2.0 0.00 0.06 0.00 89 1013.5
20260505022519 58 0.0 0.0 0.00 0.06 0.00 94 1013.4
20260505021557 58 0.0 0.0 0.00 0.14 0.00 94 1013.6
20260505020614 58 0.0 0.0 0.00 0.14 0.00 94 1013.6
20260505015612 58 0.0 0.0 0.00 0.14 0.00 95 1013.8
20260505014609 58 0.0 0.0 0.00 0.14 0.00 95 1013.8
20260505013606 57 0.0 0.0 0.00 0.14 0.00 94 1014.0
20260505012604 57 0.0 0.0 0.00 0.14 0.00 94 1014.1
20260505011601 57 0.0 0.0 0.00 0.14 0.00 94 1014.3
20260505010558 58 0.0 0.0 0.00 0.14 0.00 94 1014.4
20260505005556 58 0.0 0.0 0.00 0.14 0.00 94 1014.6
20260505004558 59 0.0 2.0 0.00 0.14 0.00 93 1014.6
20260505003550 59 128 3.0 4.0 0.00 0.14 0.00 94 1014.6
20260505002548 59 143 3.0 6.0 0.00 0.14 0.00 95 1014.6
20260505001545 59 98 1.0 4.0 0.00 0.14 0.00 95 1014.6
20260505000543 59 136 2.0 4.0 0.00 0.14 0.00 95 1014.8
20260504235540 60 120 3.0 7.0 0.00 0.14 0.00 95 1014.9
20260504234537 60 111 2.0 6.0 0.00 0.14 0.00 95 1015.0
20260504233535 60 118 3.0 6.0 0.00 0.14 0.00 94 1014.8
20260504232532 60 113 2.0 4.0 0.00 0.14 0.00 95 1014.8
20260504231530 60 132 3.0 4.0 0.00 0.14 0.00 95 1014.7
20260504230527 60 128 2.0 4.0 0.00 0.14 0.00 95 1014.8
20260504225545 60 130 2.0 4.0 0.00 0.14 0.00 94 1014.7
20260504224522 60 138 2.0 6.0 0.00 0.14 0.00 94 1014.8
20260504223519 60 113 2.0 4.0 0.00 0.14 0.00 93 1014.7
20260504222516 60 119 1.0 2.0 0.00 0.14 0.00 92 1014.5
20260504221614 60 0.0 0.0 0.00 0.14 0.00 90 1014.6
20260504220612 60 0.0 0.0 0.00 0.14 0.00 91 1014.4
20260504215629 60 0.0 0.0 0.00 0.14 0.14 90 1014.4
20260504214606 61 0.0 2.0 0.00 0.14 0.14 90 1014.5
20260504213603 60 135 0.0 2.0 0.00 0.14 0.14 90 1014.5
20260504212621 60 0.0 0.0 0.00 0.14 0.14 91 1014.3
20260504211559 60 0.0 0.0 0.00 0.14 0.14 92 1014.5
20260504210556 60 0.0 0.0 0.00 0.14 0.14 92 1014.4
20260504205553 60 0.0 0.0 0.00 0.14 0.14 91 1014.3
20260504204551 61 0.0 0.0 0.00 0.14 0.14 91 1014.3
20260504203548 61 0.0 0.0 0.00 0.14 0.14 91 1014.3
20260504202545 61 132 2.0 4.0 0.00 0.14 0.14 91 1014.2
20260504201543 61 164 2.0 4.0 0.00 0.14 0.14 91 1014.2
20260504200540 62 140 0.0 2.0 0.00 0.14 0.14 91 1014.0
20260504195538 62 0.0 0.0 0.00 0.14 0.14 91 1013.9
20260504194535 62 0.0 0.0 0.00 0.14 0.14 91 1013.8
20260504193532 62 0.0 0.0 0.00 0.14 0.14 90 1013.8
20260504192530 62 0.0 2.0 0.00 0.14 0.14 90 1013.5
20260504191527 63 23 0.0 2.0 0.00 0.14 0.14 89 1013.6
20260504190524 63 0.0 0.0 0.00 0.14 0.14 88 1013.6
20260504185542 63 0.0 0.0 0.00 0.14 0.14 87 1013.7
20260504184519 64 158 0.0 2.0 0.00 0.14 0.14 87 1013.6
20260504183557 64 138 1.0 4.0 0.00 0.14 0.14 86 1013.4
20260504182614 64 101 3.0 4.0 0.00 0.14 0.14 86 1013.5
20260504181632 64 121 3.0 6.0 0.00 0.14 0.14 85 1013.5
20260504180609 64 143 3.0 6.0 0.00 0.14 0.14 85 1013.6
20260504175606 65 133 3.0 8.0 0.00 0.14 0.14 83 1013.4
20260504174603 66 113 2.0 6.0 0.00 0.14 0.14 81 1013.7
20260504173601 68 111 2.0 4.0 0.00 0.14 0.14 79 1013.5
20260504172558 70 233 1.0 4.0 0.00 0.14 0.14 76 1013.5
20260504171556 70 197 2.0 4.0 0.00 0.14 0.14 75 1013.6
20260504170553 69 113 0.0 4.0 0.00 0.14 0.14 78 1013.5
20260504150552 67 228 0.0 2.0 0.00 0.14 0.14 83 1013.6